Kralendijk, Netherlands

10:48 AM AST on February 25, 2018 (GMT -0400)
Kralendijk

Weather History for 78990 - September, 2012

Change the Weather History Date:

Tuesday, September 25, 2012

  Actual Average Record
Temperature  
Mean Temperature 78 °F -  
Max Temperature 87 °F 88 °F - ()
Min Temperature 70 °F 81 °F - ()
Cooling Degree Days 14    
Growing Degree Days 28 (Base 50)    
Moisture  
Dew Point 76 °F    
Average Humidity 83    
Maximum Humidity 100    
Minimum Humidity 70    
Precipitation  
Precipitation 0.87 in - - ()
Sea Level Pressure  
Sea Level Pressure 29.91 in    
Wind  
Wind Speed 11 mph ()    
Max Wind Speed 16 mph    
Max Gust Speed -    
Visibility 8.9 miles    
Events Rain    
T = Trace of Precipitation, MM = Missing Value Source: Averaged Metar Reports

Daily Weather History Graph

Daily Weather History Graph

Search for Another Location

Airport or City:

Trip Planner

Search our weather history database for the weather conditions in past years. The results will help you decide how hot, cold, wet, or windy it might be!

Date:

Astronomy

Sep. 25, 2012 Rise Set
Actual Time 6:22 AM AST 6:26 PM AST
Civil Twilight 6:01 AM AST 6:47 PM AST
Nautical Twilight 5:36 AM AST 7:12 PM AST
Astronomical Twilight 5:11 AM AST 7:37 PM AST
Moon 3:13 PM AST 2:21 AM AST
Length of Visible Light 12h 46m
Length of Day
12h 04m
Waxing Gibbous, 80% of the Moon is Illuminated
Sep 25
Waxing Gibbous
Sep 29
Full
Oct 8
Last Quarter
Oct 15
New
Oct 21
First Quarter

Hourly Weather History & Observations

Time (AST) Temp. Heat Index Dew Point Humidity Pressure Visibility Wind Dir Wind Speed Gust Speed Precip Events Conditions
12:00 AM 82.4 °F 90.9 °F 77.0 °F 84% 29.89 in - East 12.7 mph - N/A   Unknown
1:00 AM 82.4 °F 89.5 °F 75.2 °F 79% 29.89 in - East 12.7 mph - N/A   Unknown
2:00 AM 82 °F - 76 °F 76%  in - East 12.7 mph - -   Clear
2:00 AM 82.4 °F 89.5 °F 75.2 °F 79% 29.86 in - North - - N/A   Unknown
3:00 AM 82.4 °F 89.5 °F 75.2 °F 79% 29.86 in - North - - N/A   Unknown
4:00 AM 78.8 °F - 75.2 °F 89% 29.86 in - East 12.7 mph - N/A Rain Rain
5:00 AM 74 °F - 73 °F 94%  in - Calm Calm - - Rain Light Rain
5:00 AM 75.2 °F - 73.4 °F 94% 29.89 in - East 12.7 mph - N/A Rain Rain
6:00 AM 73.4 °F - 71.6 °F 94% 29.92 in - East 12.7 mph - N/A Rain Heavy Rain
7:00 AM 69.8 °F - 69.8 °F 100% 29.95 in - North - - N/A Rain Rain
8:00 AM 73 °F - - % 29.93 in 12 mi South 10.4 mph - - Rain Light Rain Showers
8:00 AM 73.4 °F - 71.6 °F 94% 29.92 in - North - - N/A Rain Rain
9:00 AM 78.8 °F - 77.0 °F 94% 29.92 in - North - - N/A Rain Light Rain
10:00 AM 80.6 °F 88.1 °F 78.8 °F 94% 29.95 in 6.2 mi East 10.4 mph - N/A Rain Light Rain
11:00 AM 83 °F - 78 °F 81% 29.97 in 16 mi East 12.7 mph - - Rain Light Rain Showers
11:00 AM 82.4 °F 92.4 °F 78.8 °F 89% 29.95 in 6.2 mi East 11.5 mph - N/A   Scattered Clouds
12:00 PM 86.0 °F 96.9 °F 77.0 °F 74% 29.92 in - North - - N/A   Unknown
1:00 PM 87.8 °F 99.7 °F 77.0 °F 70% 29.89 in 6.2 mi East 16.1 mph - N/A   Mostly Cloudy
2:00 PM 86.0 °F 96.9 °F 77.0 °F 74% 29.89 in - East 15.0 mph - N/A   Unknown
3:00 PM 86.0 °F 96.9 °F 77.0 °F 74% 29.89 in - East 13.8 mph - N/A   Unknown
4:00 PM 86.0 °F 96.9 °F 77.0 °F 74% 29.86 in 6.2 mi East 15.0 mph - N/A   Scattered Clouds
5:00 PM 84 °F - 76 °F 72% 29.90 in 16 mi East 10.4 mph - -   Partly Cloudy
5:00 PM 84.2 °F 94.1 °F 77.0 °F 79% 29.89 in 6.2 mi East 10.4 mph - N/A   Scattered Clouds
6:00 PM 84.2 °F 94.1 °F 77.0 °F 79% 29.86 in 6.2 mi East 11.5 mph - N/A   Scattered Clouds
7:00 PM 82.4 °F 89.5 °F 75.2 °F 79% 29.86 in 6.2 mi East 11.5 mph - N/A   Scattered Clouds
8:00 PM 82 °F - 77 °F 79% 29.93 in 16 mi East 9.2 mph - -   Partly Cloudy
8:00 PM 82.4 °F 90.9 °F 77.0 °F 84% 29.92 in 6.2 mi East 9.2 mph - N/A   Scattered Clouds
9:00 PM 82.4 °F 90.9 °F 77.0 °F 84% 29.92 in - ENE 11.5 mph - N/A   Unknown
11:00 PM 82 °F - 77 °F 80%  in 6 mi ENE 11.5 mph - -   Clear
11:00 PM 82.4 °F 90.9 °F 77.0 °F 84% 29.95 in - North - - N/A   Unknown